This demonstration page uses our WeatherBlox Daily Observations layout. Learn more.

Left ArrowRight Arrow

Hourly Observations for August 17, 2018

Temp ( °F °C ) Dew Point ( °F °C ) Humidity (%) Winds ( mph kmh ) Pressure ( in mb ) Visibility ( mi km ) Precip ( " mm )
12:59 am 00:59 Clear 79 26.1 72 22.2 79 79 SSW 6 9 30.14 1021 9 14 0.00 0.00
1:59 am 01:59 Clear 79 26.1 72 22.2 79 79 VRB 7 11 30.13 1020 9 14 0.00 0.00
2:59 am 02:59 Clear 78 25.6 73 22.8 85 85 SW 6 9 30.12 1020 9 14 0.00 0.00
3:59 am 03:59 Clear 77 25 74 23.3 90 90 SSW 5 7 30.12 1020 8 13 0.00 0.00
4:59 am 04:59 Mostly Clear 78 25.6 73 22.8 85 85 WSW 6 9 30.12 1020 8 13 0.00 0.00
5:59 am 05:59 Partly Cloudy 77 25 72 22.2 85 85 SW 3 6 30.12 1020 7 11 0.00 0.00
6:59 am 06:59 Hazy 77 25 72 22.2 85 85 SW 3 6 30.13 1020 6 10 0.00 0.00
7:59 am 07:59 Hazy 80 26.7 73 22.8 79 79 SW 6 9 30.13 1020 6 10 0.00 0.00
8:59 am 08:59 Partly Cloudy 82 27.8 74 23.3 77 77 SW 7 11 30.12 1020 7 11 0.00 0.00
9:59 am 09:59 Partly Cloudy 84 28.9 74 23.3 72 72 SW 6 9 30.12 1020 7 11 0.00 0.00
10:59 am 10:59 Partly Cloudy 86 30 75 23.9 70 70 VRB 6 9 30.12 1020 7 11 0.00 0.00
11:59 am 11:59 Partly Cloudy 89 31.7 73 22.8 59 59 SSW 8 13 30.11 1020 7 11 0.00 0.00
12:59 pm 12:59 Partly Cloudy 91 32.8 73 22.8 56 56 SW 7 11 30.09 1019 8 13 0.00 0.00
1:59 pm 13:59 Partly Cloudy 93 33.9 73 22.8 52 52 SSW 8 13 30.08 1019 8 13 0.00 0.00
2:59 pm 14:59 Partly Cloudy 93 33.9 73 22.8 52 52 SW 9 15 30.06 1018 8 13 0.00 0.00
3:59 pm 15:59 Partly Cloudy 91 32.8 71 21.7 52 52 SW 12 19 30.04 1017 8 13 0.00 0.00
4:59 pm 16:59 Partly Cloudy 92 33.3 73 22.8 54 54 SSW 8 13 30.03 1017 8 13 0.00 0.00
5:59 pm 17:59 Partly Cloudy 90 32.2 73 22.8 58 58 SW 10 17 30.02 1017 8 13 0.00 0.00
6:59 pm 18:59 Partly Cloudy 89 31.7 73 22.8 59 59 SSW 9 15 30.01 1016 8 13 0.00 0.00
7:59 pm 19:59 Partly Cloudy 87 30.6 73 22.8 63 63 SSW 7 11 30.02 1017 9 14 0.00 0.00
8:59 pm 20:59 Partly Cloudy 86 30 73 22.8 65 65 SSW 7 11 30.02 1017 10 16 0.00 0.00
9:59 pm 21:59 Mostly Cloudy 85 29.4 73 22.8 68 68 SSW 8 13 30.03 1017 10 16 0.00 0.00
10:59 pm 22:59 Partly Cloudy 83 28.3 74 23.3 74 74 SSW 8 13 30.02 1017 10 16 0.00 0.00
11:59 pm 23:59 Partly Cloudy 82 27.8 75 23.9 79 79 SSW 9 15 30.02 1017 10 16 0.00 0.00

Powered by AerisWeather